Regional Weather Roundup
Issued by NWS Cleveland, OH

Home | Current Version | Previous Version | Text Only | Print | Product List | Glossary Off
Versions: 1 2 3 4 5 6 7 8 9 10 11 12 13 14 15 16 17 18 19 20 21 22 23 24 25 26 27 28 29 30 31 32 33 34 35 36 37 38 39 40 41 42 43 44 45 46 47 48 49 50

000
ASUS41 KCLE 270900
RWRCLE
OHIO REGIONAL WEATHER ROUNDUP
NATIONAL WEATHER SERVICE WILMINGTON, OH
500 AM EDT WED AUG 27 2014

NOTE: "FAIR" INDICATES FEW OR NO CLOUDS BELOW 12,000 FEET WITH NO
SIGNIFICANT WEATHER AND/OR OBSTRUCTIONS TO VISIBILITY.

OHZ001>008-015>018-024>027-034-035-043-044-271000-
   NORTHWEST OHIO

CITY           SKY/WX    TMP DP  RH WIND       PRES   REMARKS
DEFIANCE       MOCLDY    69  66  90 CALM      30.09S FOG
FINDLAY        FOG       69  68  96 NW3       30.08F VSB 1/4
TOLEDO EXPRESS CLOUDY    70  68  93 CALM      30.08S
TOLEDO METCALF MOCLDY    70  65  84 NW3       30.09R
LIMA           PTCLDY    70  67  90 N3        30.09S
$$

OHZ009>014-019>023-028>033-038-089-271000-
   NORTHEAST OHIO

CITY           SKY/WX    TMP DP  RH WIND       PRES   REMARKS
CLE-HOPKINS    MOCLDY    71  68  90 CALM      30.10R
CLE-LAKEFRONT  CLOUDY    73  70  90 N7        30.07S
CUY CO. ARPT   NOT AVBL
LORAIN-ELYRIA  CLOUDY    75  71  87 CALM      30.08F
ASHTABULA      CLOUDY    70  68  93 CALM      30.09S
AKRON-CANTON   MOCLDY    73  66  78 W5        30.09S
WOOSTER        NOT AVBL
MANSFIELD      CLEAR     70  70 100 W6        30.11R FOG
YOUNGSTOWN     MOCLDY    71  67  87 NW7       30.09R
$$

OHZ042-051>053-060>062-070>072-077>081-271000-
  SOUTHWEST OHIO

CITY           SKY/WX    TMP DP  RH WIND       PRES   REMARKS
CINC-COVINGTON MOCLDY    71  67  87 CALM      30.09S
CINC-LUNKEN    PTCLDY    68  68 100 CALM      30.09S FOG
HAMILTON       MOCLDY    69  68  96 CALM      30.09S FOG
DAYTON         NOT AVBL
WRIGHT-PAT AFB PTCLDY    69  68  94 N2        30.09S
DAYTON GENERAL PTCLDY    71  69  93 S3        30.09S
WILMINGTON     CLEAR     67  64  90 SW5       30.09S
$$

OHZ036-037-039>041-045>050-054>059-063>069-073>076-082>088-271000-
  CENTRAL AND SOUTHEAST OHIO

CITY           SKY/WX    TMP DP  RH WIND       PRES   REMARKS
COLUMBUS       PTCLDY    73  67  81 CALM      30.08S
OSU AIRPORT    PTCLDY    70  67  90 W6        30.09S
BOLTON FIELD   NOT AVBL
RICKENBACK AFB NOT AVBL
NEWARK         CLEAR     65  63  93 CALM      30.09S FOG
MARION         PTCLDY    68  66  93 CALM      30.09F FOG
LANCASTER      CLEAR     65  63  93 CALM      30.09S
ZANESVILLE     PTCLDY    67  64  90 CALM      30.09S FOG
NEW PHILLY     MOCLDY    68  67  96 CALM      30.09F FOG
$$


USA.gov is the U.S. government's official web portal to all federal, state and local government web resources and services.